Time,TemperatureF,DewpointF,PressureIn,WindDirection,WindDirectionDegrees,WindSpeedMPH,WindSpeedGustMPH,Humidity,HourlyPrecipIn,Conditions,Clouds,dailyrainin,SoftwareType,DateUTC
2013-01-23 00:15:00,40.7,38.0,30.04,SSE,148,0.0,0.0,90,0.00,,,0.00,weatherlink.com 1.10,2013-01-23 08:15:00,
2013-01-23 00:30:00,40.5,38.0,30.03,SSE,148,1.0,1.0,90,0.00,,,0.00,weatherlink.com 1.10,2013-01-23 08:30:00,
2013-01-23 00:45:00,40.6,38.0,30.03,SSE,148,0.0,0.0,90,0.00,,,0.00,weatherlink.com 1.10,2013-01-23 08:45:00,
2013-01-23 01:00:00,40.7,38.0,30.02,SSE,148,0.0,0.0,90,0.00,,,0.00,weatherlink.com 1.10,2013-01-23 09:00:00,
2013-01-23 01:15:00,41.8,39.0,30.03,SSE,161,0.0,4.0,91,0.00,,,0.00,weatherlink.com 1.10,2013-01-23 09:15:00,
2013-01-23 01:30:00,42.0,39.0,30.02,SSE,161,0.0,1.0,90,0.00,,,0.00,weatherlink.com 1.10,2013-01-23 09:30:00,
2013-01-23 01:45:00,42.1,39.0,30.02,SSE,161,0.0,2.0,90,0.00,,,0.00,weatherlink.com 1.10,2013-01-23 09:45:00,
2013-01-23 02:00:00,42.2,40.0,30.01,SSE,161,0.0,1.0,90,0.00,,,0.00,weatherlink.com 1.10,2013-01-23 10:00:00,
2013-01-23 02:15:00,42.4,40.0,30.02,SSE,161,1.0,2.0,90,0.00,,,0.00,weatherlink.com 1.10,2013-01-23 10:15:00,
2013-01-23 02:30:00,42.8,40.0,30.02,SSE,154,0.0,2.0,89,0.00,,,0.00,weatherlink.com 1.10,2013-01-23 10:30:00,
2013-01-23 02:45:00,42.7,40.0,30.02,SSE,154,0.0,0.0,89,0.00,,,0.00,weatherlink.com 1.10,2013-01-23 10:45:00,
2013-01-23 03:00:00,42.5,40.0,30.00,WNW,291,2.0,2.0,89,0.00,,,0.00,weatherlink.com 1.10,2013-01-23 11:00:00,
2013-01-23 03:15:00,42.7,40.0,30.00,WNW,291,0.0,0.0,89,0.00,,,0.00,weatherlink.com 1.10,2013-01-23 11:15:00,
2013-01-23 03:30:00,42.7,40.0,29.99,NW,317,0.0,2.0,90,0.00,,,0.00,weatherlink.com 1.10,2013-01-23 11:30:00,
2013-01-23 03:45:00,42.7,40.0,29.98,NW,317,0.0,1.0,90,0.00,,,0.00,weatherlink.com 1.10,2013-01-23 11:45:00,
2013-01-23 04:00:00,43.0,41.0,29.99,NW,317,0.0,2.0,91,0.00,,,0.00,weatherlink.com 1.10,2013-01-23 12:00:00,
2013-01-23 04:15:00,43.2,41.0,29.98,NW,317,0.0,3.0,90,0.00,,,0.00,weatherlink.com 1.10,2013-01-23 12:15:00,
2013-01-23 04:30:00,43.0,40.0,29.98,NW,317,0.0,0.0,90,0.00,,,0.00,weatherlink.com 1.10,2013-01-23 12:30:00,
2013-01-23 04:45:00,43.1,41.0,29.98,NW,317,0.0,1.0,91,0.00,,,0.00,weatherlink.com 1.10,2013-01-23 12:45:00,
2013-01-23 05:00:00,43.2,41.0,29.97,NW,317,0.0,1.0,90,0.00,,,0.00,weatherlink.com 1.10,2013-01-23 13:00:00,
2013-01-23 05:15:00,43.1,41.0,29.97,NW,317,2.0,2.0,91,0.00,,,0.00,weatherlink.com 1.10,2013-01-23 13:15:00,
2013-01-23 05:30:00,43.6,41.0,29.96,SW,228,2.0,2.0,90,0.00,,,0.00,weatherlink.com 1.10,2013-01-23 13:30:00,
2013-01-23 05:45:00,43.6,41.0,29.97,SW,228,0.0,0.0,90,0.00,,,0.00,weatherlink.com 1.10,2013-01-23 13:45:00,
2013-01-23 06:00:00,43.7,41.0,29.97,SW,228,0.0,0.0,90,0.00,,,0.00,weatherlink.com 1.10,2013-01-23 14:00:00,
2013-01-23 06:15:00,43.7,41.0,29.96,SW,228,0.0,1.0,90,0.00,,,0.00,weatherlink.com 1.10,2013-01-23 14:15:00,
2013-01-23 06:30:00,43.6,41.0,29.97,SW,228,1.0,1.0,90,0.00,,,0.00,weatherlink.com 1.10,2013-01-23 14:30:00,
2013-01-23 06:45:00,43.7,41.0,29.98,SW,228,0.0,1.0,91,0.00,,,0.00,weatherlink.com 1.10,2013-01-23 14:45:00,
2013-01-23 07:00:00,43.9,42.0,29.97,SW,228,1.0,2.0,91,0.00,,,0.00,weatherlink.com 1.10,2013-01-23 15:00:00,
2013-01-23 07:15:00,44.1,41.0,29.98,SE,136,1.0,2.0,90,0.00,,,0.00,weatherlink.com 1.10,2013-01-23 15:15:00,
2013-01-23 07:30:00,43.9,41.0,29.97,SE,136,0.0,1.0,90,0.00,,,0.00,weatherlink.com 1.10,2013-01-23 15:30:00,
2013-01-23 07:45:00,44.1,41.0,29.98,SE,136,0.0,0.0,90,0.00,,,0.00,weatherlink.com 1.10,2013-01-23 15:45:00,
2013-01-23 08:00:00,44.3,42.0,29.98,SE,136,1.0,2.0,90,0.01,,,0.01,weatherlink.com 1.10,2013-01-23 16:00:00,
2013-01-23 08:15:00,44.5,42.0,29.99,SE,136,0.0,1.0,91,0.02,,,0.02,weatherlink.com 1.10,2013-01-23 16:15:00,
2013-01-23 08:30:00,44.7,42.0,30.00,WNW,294,0.0,3.0,91,0.02,,,0.02,weatherlink.com 1.10,2013-01-23 16:30:00,
2013-01-23 08:45:00,44.8,43.0,30.00,WNW,294,0.0,2.0,92,0.02,,,0.02,weatherlink.com 1.10,2013-01-23 16:45:00,
2013-01-23 09:00:00,45.0,43.0,30.00,WNW,294,0.0,1.0,92,0.01,,,0.02,weatherlink.com 1.10,2013-01-23 17:00:00,
2013-01-23 09:15:00,45.5,44.0,30.00,WNW,294,0.0,1.0,93,0.00,,,0.02,weatherlink.com 1.10,2013-01-23 17:15:00,
2013-01-23 09:30:00,46.2,44.0,30.01,WNW,294,0.0,1.0,92,0.00,,,0.02,weatherlink.com 1.10,2013-01-23 17:30:00,
2013-01-23 09:45:00,46.7,44.0,30.02,WNW,294,0.0,1.0,91,0.00,,,0.02,weatherlink.com 1.10,2013-01-23 17:45:00,
2013-01-23 10:00:00,47.1,45.0,30.02,WNW,294,0.0,1.0,91,0.01,,,0.03,weatherlink.com 1.10,2013-01-23 18:00:00,
2013-01-23 10:15:00,47.4,45.0,30.03,WNW,294,0.0,1.0,90,0.01,,,0.03,weatherlink.com 1.10,2013-01-23 18:15:00,
2013-01-23 10:31:00,47.7,45.0,30.03,WNW,294,0.0,1.0,90,0.01,,,0.03,weatherlink.com 1.10,2013-01-23 18:31:00,
2013-01-23 10:46:00,48.1,45.0,30.03,WNW,294,0.0,1.0,89,0.01,,,0.03,weatherlink.com 1.10,2013-01-23 18:46:00,
2013-01-23 11:01:00,48.4,45.0,30.03,WNW,294,0.0,0.0,88,0.00,,,0.03,weatherlink.com 1.10,2013-01-23 19:01:00,
2013-01-23 11:16:00,48.8,45.0,30.04,WNW,294,1.0,3.0,87,0.00,,,0.03,weatherlink.com 1.10,2013-01-23 19:16:00,
2013-01-23 11:31:00,49.0,46.0,30.03,WNW,294,0.0,0.0,88,0.00,,,0.03,weatherlink.com 1.10,2013-01-23 19:31:00,
2013-01-23 11:46:00,49.4,46.0,30.03,WNW,294,0.0,1.0,88,0.00,,,0.03,weatherlink.com 1.10,2013-01-23 19:46:00,
2013-01-23 12:01:00,49.5,46.0,30.02,WNW,294,0.0,2.0,89,0.00,,,0.03,weatherlink.com 1.10,2013-01-23 20:01:00,
2013-01-23 12:16:00,49.6,47.0,30.02,WNW,294,0.0,1.0,89,0.00,,,0.03,weatherlink.com 1.10,2013-01-23 20:16:00,
2013-01-23 12:31:00,49.7,47.0,30.02,WNW,294,0.0,1.0,90,0.01,,,0.04,weatherlink.com 1.10,2013-01-23 20:31:00,
2013-01-23 12:46:00,49.6,47.0,30.01,WNW,294,2.0,3.0,89,0.02,,,0.05,weatherlink.com 1.10,2013-01-23 20:46:00,
2013-01-23 13:01:00,49.4,47.0,30.00,NNW,343,2.0,5.0,91,0.03,,,0.06,weatherlink.com 1.10,2013-01-23 21:01:00,
2013-01-23 13:16:00,49.3,47.0,30.00,NNW,329,3.0,4.0,91,0.03,,,0.06,weatherlink.com 1.10,2013-01-23 21:16:00,
2013-01-23 13:31:00,49.2,47.0,30.00,NW,320,3.0,4.0,91,0.03,,,0.07,weatherlink.com 1.10,2013-01-23 21:31:00,
2013-01-23 13:46:00,49.0,47.0,30.01,NW,306,2.0,4.0,91,0.05,,,0.10,weatherlink.com 1.10,2013-01-23 21:46:00,
2013-01-23 14:01:00,48.6,46.0,30.02,WNW,299,1.0,5.0,92,0.07,,,0.13,weatherlink.com 1.10,2013-01-23 22:01:00,
2013-01-23 14:16:00,48.6,46.0,30.04,WNW,302,0.0,2.0,92,0.08,,,0.14,weatherlink.com 1.10,2013-01-23 22:16:00,
2013-01-23 14:31:00,48.7,47.0,30.05,WNW,302,0.0,0.0,92,0.09,,,0.16,weatherlink.com 1.10,2013-01-23 22:31:00,
2013-01-23 14:46:00,48.6,46.0,30.04,SE,145,1.0,5.0,91,0.08,,,0.18,weatherlink.com 1.10,2013-01-23 22:46:00,
2013-01-23 15:01:00,48.6,46.0,30.04,SE,139,1.0,3.0,91,0.08,,,0.21,weatherlink.com 1.10,2013-01-23 23:01:00,
2013-01-23 15:16:00,48.4,46.0,30.05,South,178,2.0,4.0,91,0.09,,,0.23,weatherlink.com 1.10,2013-01-23 23:16:00,
2013-01-23 15:31:00,48.3,46.0,30.05,SSE,147,0.0,2.0,92,0.10,,,0.26,weatherlink.com 1.10,2013-01-23 23:31:00,
2013-01-23 15:46:00,48.2,46.0,30.05,SSE,147,0.0,1.0,92,0.10,,,0.28,weatherlink.com 1.10,2013-01-23 23:46:00,
2013-01-23 16:01:00,48.0,46.0,30.05,NNW,346,1.0,3.0,93,0.08,,,0.29,weatherlink.com 1.10,2013-01-24 00:01:00,
2013-01-23 16:16:00,47.9,46.0,30.06,SSE,153,0.0,3.0,93,0.09,,,0.32,weatherlink.com 1.10,2013-01-24 00:16:00,
2013-01-23 16:31:00,47.8,46.0,30.06,SSE,153,0.0,2.0,93,0.09,,,0.35,weatherlink.com 1.10,2013-01-24 00:31:00,
2013-01-23 16:46:00,47.7,46.0,30.05,NW,307,0.0,3.0,93,0.08,,,0.36,weatherlink.com 1.10,2013-01-24 00:46:00,
2013-01-23 17:01:00,47.7,46.0,30.06,NW,311,2.0,2.0,93,0.08,,,0.37,weatherlink.com 1.10,2013-01-24 01:01:00,
2013-01-23 17:16:00,47.8,46.0,30.06,NW,311,2.0,2.0,94,0.06,,,0.38,weatherlink.com 1.10,2013-01-24 01:16:00,
2013-01-23 17:31:00,47.6,46.0,30.05,NW,319,3.0,3.0,94,0.04,,,0.39,weatherlink.com 1.10,2013-01-24 01:31:00,
2013-01-23 17:46:00,47.4,46.0,30.05,NW,308,1.0,2.0,93,0.03,,,0.39,weatherlink.com 1.10,2013-01-24 01:46:00,
2013-01-23 18:01:00,47.5,46.0,30.06,NW,308,0.0,2.0,94,0.02,,,0.39,weatherlink.com 1.10,2013-01-24 02:01:00,
2013-01-23 18:16:00,47.5,46.0,30.07,NW,308,0.0,1.0,94,0.01,,,0.39,weatherlink.com 1.10,2013-01-24 02:16:00,
2013-01-23 18:31:00,47.2,46.0,30.07,NW,308,2.0,2.0,94,0.01,,,0.40,weatherlink.com 1.10,2013-01-24 02:31:00,
2013-01-23 18:46:00,47.0,45.0,30.07,NW,308,0.0,2.0,94,0.01,,,0.40,weatherlink.com 1.10,2013-01-24 02:46:00,
2013-01-23 19:01:00,47.1,46.0,30.08,NW,308,0.0,3.0,94,0.01,,,0.40,weatherlink.com 1.10,2013-01-24 03:01:00,
2013-01-23 19:16:00,46.9,45.0,30.07,NW,308,0.0,2.0,94,0.01,,,0.40,weatherlink.com 1.10,2013-01-24 03:16:00,
2013-01-23 19:31:00,47.0,45.0,30.07,North,355,2.0,5.0,94,0.01,,,0.41,weatherlink.com 1.10,2013-01-24 03:31:00,
2013-01-23 19:46:00,47.1,46.0,30.07,North,355,1.0,3.0,94,0.01,,,0.41,weatherlink.com 1.10,2013-01-24 03:46:00,
2013-01-23 20:01:00,47.2,46.0,30.07,North,355,0.0,2.0,94,0.01,,,0.41,weatherlink.com 1.10,2013-01-24 04:01:00,
2013-01-23 20:16:00,47.0,45.0,30.07,North,355,0.0,3.0,94,0.01,,,0.41,weatherlink.com 1.10,2013-01-24 04:16:00,
2013-01-23 20:31:00,47.2,46.0,30.07,North,355,0.0,3.0,94,0.00,,,0.41,weatherlink.com 1.10,2013-01-24 04:31:00,
2013-01-23 20:46:00,47.0,45.0,30.07,North,355,0.0,2.0,94,0.00,,,0.41,weatherlink.com 1.10,2013-01-24 04:46:00,
2013-01-23 21:16:00,46.8,45.0,30.08,North,355,0.0,0.0,94,0.01,,,0.42,weatherlink.com 1.10,2013-01-24 05:16:00,
2013-01-23 21:31:00,46.7,45.0,30.08,North,355,0.0,0.0,94,0.02,,,0.43,weatherlink.com 1.10,2013-01-24 05:31:00,
2013-01-23 21:46:00,46.6,45.0,30.09,North,355,1.0,3.0,94,0.02,,,0.43,weatherlink.com 1.10,2013-01-24 05:46:00,
2013-01-23 22:01:00,46.9,46.0,30.09,North,5,0.0,0.0,95,0.01,,,0.43,weatherlink.com 1.10,2013-01-24 06:01:00,
2013-01-23 22:16:00,46.8,46.0,30.09,North,5,0.0,1.0,95,0.01,,,0.43,weatherlink.com 1.10,2013-01-24 06:16:00,
2013-01-23 22:31:00,46.3,45.0,30.08,North,5,2.0,2.0,94,0.00,,,0.43,weatherlink.com 1.10,2013-01-24 06:31:00,
2013-01-23 22:46:00,46.6,45.0,30.08,NW,315,1.0,3.0,94,0.01,,,0.44,weatherlink.com 1.10,2013-01-24 06:46:00,
2013-01-23 23:01:00,46.9,46.0,30.08,NW,323,0.0,4.0,95,0.01,,,0.44,weatherlink.com 1.10,2013-01-24 07:01:00,
2013-01-23 23:16:00,46.9,46.0,30.08,SSE,159,2.0,4.0,95,0.01,,,0.44,weatherlink.com 1.10,2013-01-24 07:16:00,
2013-01-23 23:31:00,46.8,46.0,30.08,SSE,161,1.0,3.0,95,0.01,,,0.44,weatherlink.com 1.10,2013-01-24 07:31:00,
2013-01-23 23:46:00,46.8,46.0,30.08,SSE,161,0.0,0.0,95,0.00,,,0.44,weatherlink.com 1.10,2013-01-24 07:46:00,